Powrót do katalogu

CZ-2D DEB

AktywnySSO
NORAD 36291·DEBRIS·🇨🇳 China

Wystrzelony Nov 5, 2008 z Jiuquan Satellite Launch Center

Loading…

Następne Przeloty (najbliższe 24 godziny)

TLE

ŚwieżeSource: Space-Track

Epoka: Sep 14, 2026, 21:17 UTC

1 36291U 08056G   26257.88703510  .00000136  00000-0  92475-4 0  9995
2 36291  98.4006 278.7745 0168695 183.3818 176.6226 14.06797771908957

Śledź CZ-2D DEB w czasie rzeczywistym z AllMySat

Download on the App Store